Flag for Germany Weather past 2 weeks in Limburg an der Lahn, Hesse, Germany

Now
36 °F

Rain. Fog.


Feels Like: 25 °F
Forecast: 40 / 44 °F
Wind: 20 mph from West

Location: Hessen

Current Time: Dec 20, 2014 at 8:11:06 PM

Latest Report: Dec 20, 2014 at 4:50 PM


Visibility: 3 mi

Pressure: 30.04 "Hg

Humidity: 93%

Dew point: 34 °F

Location of Limburg an der LahnLocation

Historic Weather in Limburg an der Lahn — Graph

°F

Limburg an der Lahn temperature yesterday

Maximum temperature yesterday: 46 °F (at 11:50 AM)
Minimum temperature yesterday: 37 °F (at 6:50 PM)
Average temperature yesterday: 43 °F

Past Weeks' High & Low Weather Summary

 TemperatureHumidityPressure
High50 °F (Dec 18, 6:50 PM)100% (Dec 5, 4:20 PM)30.33 "Hg (Dec 5, 4:20 PM)
Low30 °F (Dec 8, 6:20 PM)87% (Dec 7, 7:50 AM)29.47 "Hg (Dec 12, 3:20 PM)
Average36 °F98%29.91 "Hg
* Reported Dec 5 4:20 PM — Dec 20 4:50 PM, Limburg an der Lahn, Weather by CustomWeather, © 2014

Note: Actual official high and low records may vary slightly from our data, if they occured in-between our weather recording intervals... More about our weather records

Advertising

Limburg an der Lahn weather history for previous 24 hours

 ConditionsComfort  
Time TempWeatherWind HumidityBarometerVisibility
4:50 PM
Dec 20
36 °FRain. Fog.20 mph93%30.04 "Hg3 mi
4:20 PM37 °FRain. Partly sunny.22 mph93%30.04 "Hg4 mi
3:50 PM36 °FLight rain. Partly sunny.20 mph100%30.04 "HgN/A
3:20 PM37 °FLight rain. Partly sunny.18 mph93%30.04 "HgN/A
2:50 PM37 °FLight rain. Partly sunny.18 mph87%30.04 "HgN/A
2:20 PM37 °FSprinkles. Partly sunny.17 mph87%30.04 "HgN/A
1:50 PM36 °FSprinkles. Partly sunny.18 mph93%30.04 "HgN/A
1:20 PM36 °FLight rain. Partly sunny.18 mph93%30.04 "HgN/A
12:50 PM36 °FPartly sunny.17 mph93%30.07 "HgN/A
12:20 PM36 °FPartly sunny.18 mph100%30.07 "HgN/A
11:50 AM36 °FDrizzle. Broken clouds.20 mph93%30.07 "Hg5 mi
11:20 AM34 °FDrizzle. Partly sunny.17 mph100%30.07 "Hg4 mi
10:50 AM36 °FPartly sunny.18 mph93%30.09 "HgN/A
10:20 AM34 °FPartly sunny.17 mph100%30.09 "HgN/A
9:50 AM34 °FPartly sunny.18 mph100%30.09 "HgN/A
9:20 AM34 °FPartly sunny.17 mph93%30.09 "HgN/A
8:50 AM34 °FScattered clouds.16 mph93%30.09 "HgN/A
8:20 AM34 °FPassing clouds.18 mph93%30.09 "HgN/A
7:50 AM34 °FPassing clouds.17 mph93%30.09 "HgN/A
7:20 AM34 °FPassing clouds.16 mph93%30.09 "HgN/A
8:50 PM
Dec 19
37 °FPartly cloudy.20 mph93%30.01 "HgN/A
8:20 PM37 °FPassing clouds.20 mph93%29.98 "HgN/A
Weather by CustomWeather, © 2014

See weather overviewHow to use our weather pages